Hourly Weather Roundup
Issued by NWS Central Illinois

Home | Current Version | Previous Version | Text Only | Print | Product List | Glossary On
Versions: 1 2 3 4 5 6 7 8 9 10 11 12 13 14 15 16 17 18 19 20 21 22 23 24 25 26 27 28 29 30 31 32 33 34 35 36 37 38 39 40 41 42 43 44 45 46 47 48 49 50
804
NZUS43 KILX 300210
HWRILX

Area Weather Roundup
National Weather Service Lincoln IL
900 PM CDT SAT APR 29 2017

NOTE:  "FAIR" indicates few or no clouds below 12,000 feet, with
       no sigificant weather and/or obstructions to visibility.


CITY           SKY/WX    TMP DP  RH WIND       PRES   REMARKS
Bloomington    RAIN      45  44  97 NE24      29.88F
Champaign      LGT RAIN  60  58  92 S13       29.89R
Danville       LGT RAIN  56  56  98 SE13      29.87R
Decatur        LGT RAIN  52  52 100 SW6       29.87R
Effingham      HVY RAIN  64  64 100 S5        29.91S
Flora          CLOUDY    65  64  93 SW3       29.90R
Galesburg      DRIZZLE   42  41  97 NE14G22   29.95S WCI  34
Jacksonville   TSTM      44  43  97 NE6       29.88S
Lacon          CLOUDY    44  43  97 E21G31    29.90R
Lawrenceville  LGT RAIN  66  63  90 NW16      29.91R
Litchfield     TSTM      49  49 100 N6        29.87F
$$


CITY           SKY/WX    TMP DP  RH WIND       PRES   REMARKS
Lincoln        RAIN      47  46  99 NE12G18   29.86S
Macomb         DRIZZLE   43  43  99 N12       29.98R
Mattoon        RAIN      62  61  96 S9        29.89R
Mt Carmel AP   CLOUDY    65  62  89 NW13      29.91R
Olney-Noble AP TSTM      64  64 100 CALM      29.92R
Paris AP       RAIN     N/A N/A N/A SE8       29.92R
Peoria         CLOUDY    44  42  93 NE25G31   29.90R WCI  35
Pontiac        RAIN      46  45  98 NE15      29.95F
Rantoul        RAIN      60  60  98 S13       29.88R
Robinson       TSTM      64  63  96 W6        29.93R
Springfield    RAIN      47  45  93 E8        29.85F FOG
Taylorville    LGT RAIN  47  46  98 CALM      29.88S
$$

...REGIONAL REPORTS...


CITY           SKY/WX    TMP DP  RH WIND       PRES   REMARKS
Chicago O`Hare HVY RAIN  44  41  89 NE24G36   29.99F FOG     WCI  35
Kankakee       NOT AVBL
Moline         CLOUDY    42  38  85 NE16      30.00R WCI  34
Mount Sterling LGT RAIN  44  43  95 N8        29.94R
Mount Vernon   LGT RAIN  63  63 100 SE3       29.89S
Pittsfield     CLOUDY    45  44  97 N7        29.94R
Quincy         LGT RAIN  44  43  96 N10       29.92R
Rockford       CLOUDY    41  37  86 NE21G32   29.99F WCI  32
$$


CITY           SKY/WX    TMP DP  RH WIND       PRES   REMARKS
Burlington     CLOUDY    42  41  96 NE17      29.94F WCI  34
Cedar Rapids   CLOUDY    41  39  93 NE22G29   29.98F WCI  31
Des Moines     LGT RAIN  42  39  89 NE16G22   30.02R FOG     WCI  34
Kirksville     CLOUDY    42  31  64 NE16G26   29.89F WCI  34
Ottumwa        LGT RAIN  42  40  92 NE22G30   29.97R FOG     WCI  33
St Louis       TSTM      53  50  89 NW6       29.91R FOG
$$


CITY           SKY/WX    TMP DP  RH WIND       PRES   REMARKS
Terre Haute    TSTM      64  61  90 SW5       29.94R FOG
Evansville       N/A     79  66  64 SW7       29.88R HX  81
Indianapolis   CLOUDY    59  57  93 NE14      29.90F THUNDER
Lafayette      TSTM      51  51 100 E12       29.95R FOG
Madison        LGT RAIN  38  34  85 NE17      30.11S WCI  28
Milwaukee      LGT RAIN  40  37  89 NE22G31   30.12F WCI  30
$$






USA.gov is the U.S. government's official web portal to all federal, state and local government web resources and services.